Year,Month,Day,Hour,Minute,Value (Times are PST for insolation in W/m^2)
2006,05,29,00,00,0.00
2006,05,29,00,01,0.00
2006,05,29,00,02,0.00
2006,05,29,00,03,0.00
2006,05,29,00,04,0.00
2006,05,29,00,05,0.00
2006,05,29,00,06,0.00
2006,05,29,00,07,0.00
2006,05,29,00,08,0.00
2006,05,29,00,09,0.00
2006,05,29,00,10,0.00
2006,05,29,00,11,0.00
2006,05,29,00,12,0.00
2006,05,29,00,13,0.00
2006,05,29,00,14,0.00
2006,05,29,00,15,0.00
2006,05,29,00,16,0.00
2006,05,29,00,17,0.00
2006,05,29,00,18,0.00
2006,05,29,00,19,0.00
2006,05,29,00,20,0.00
2006,05,29,00,21,0.00
2006,05,29,00,22,0.00
2006,05,29,00,23,0.00
2006,05,29,00,24,0.00
2006,05,29,00,25,0.00
2006,05,29,00,26,0.00
2006,05,29,00,27,0.00
2006,05,29,00,28,0.00
2006,05,29,00,29,0.00
2006,05,29,00,30,0.00
2006,05,29,00,31,0.00
2006,05,29,00,32,0.00
2006,05,29,00,33,0.00
2006,05,29,00,34,0.00
2006,05,29,00,35,0.00
2006,05,29,00,36,0.00
2006,05,29,00,37,0.00
2006,05,29,00,38,0.00
2006,05,29,00,39,0.00
2006,05,29,00,40,0.00
2006,05,29,00,41,0.00
2006,05,29,00,42,0.00
2006,05,29,00,43,0.00
2006,05,29,00,44,0.00
2006,05,29,00,45,0.00
2006,05,29,00,46,0.00
2006,05,29,00,47,0.00
2006,05,29,00,48,0.00
2006,05,29,00,49,0.00
2006,05,29,00,50,0.00
2006,05,29,00,51,0.00
2006,05,29,00,52,0.00
2006,05,29,00,53,0.00
2006,05,29,00,54,0.00
2006,05,29,00,55,0.00
2006,05,29,00,56,0.00
2006,05,29,00,57,0.00
2006,05,29,00,58,0.00
2006,05,29,00,59,0.00
2006,05,29,01,00,0.00
2006,05,29,01,01,0.00
2006,05,29,01,02,0.00
2006,05,29,01,03,0.00
2006,05,29,01,04,0.00
2006,05,29,01,05,0.00
2006,05,29,01,06,0.00
2006,05,29,01,07,0.00
2006,05,29,01,08,0.00
2006,05,29,01,09,0.00
2006,05,29,01,10,0.00
2006,05,29,01,11,0.00
2006,05,29,01,12,0.00
2006,05,29,01,13,0.00
2006,05,29,01,14,0.00
2006,05,29,01,15,0.00
2006,05,29,01,16,0.00
2006,05,29,01,17,0.00
2006,05,29,01,18,0.00
2006,05,29,01,19,0.00
2006,05,29,01,20,0.00
2006,05,29,01,21,0.00
2006,05,29,01,22,0.00
2006,05,29,01,23,0.00
2006,05,29,01,24,0.00
2006,05,29,01,25,0.00
2006,05,29,01,26,0.00
2006,05,29,01,27,0.00
2006,05,29,01,28,0.00
2006,05,29,01,29,0.00
2006,05,29,01,30,0.00
2006,05,29,01,31,0.00
2006,05,29,01,32,0.00
2006,05,29,01,33,0.00
2006,05,29,01,34,0.00
2006,05,29,01,35,0.00
2006,05,29,01,36,0.00
2006,05,29,01,37,0.00
2006,05,29,01,38,0.00
2006,05,29,01,39,0.00
2006,05,29,01,40,0.00
2006,05,29,01,41,0.00
2006,05,29,01,42,0.00
2006,05,29,01,43,0.00
2006,05,29,01,44,0.00
2006,05,29,01,45,0.00
2006,05,29,01,46,0.00
2006,05,29,01,47,0.00
2006,05,29,01,48,0.00
2006,05,29,01,49,0.00
2006,05,29,01,50,0.00
2006,05,29,01,51,0.00
2006,05,29,01,52,0.00
2006,05,29,01,53,0.00
2006,05,29,01,54,0.00
2006,05,29,01,55,0.00
2006,05,29,01,56,0.00
2006,05,29,01,57,0.00
2006,05,29,01,58,0.00
2006,05,29,01,59,0.00
2006,05,29,02,00,0.00
2006,05,29,02,01,0.00
2006,05,29,02,02,0.00
2006,05,29,02,03,0.00
2006,05,29,02,04,0.00
2006,05,29,02,05,0.00
2006,05,29,02,06,0.00
2006,05,29,02,07,0.00
2006,05,29,02,08,0.00
2006,05,29,02,09,0.00
2006,05,29,02,10,0.00
2006,05,29,02,11,0.00
2006,05,29,02,12,0.00
2006,05,29,02,13,0.00
2006,05,29,02,14,0.00
2006,05,29,02,15,0.00
2006,05,29,02,16,0.00
2006,05,29,02,17,0.00
2006,05,29,02,18,0.00
2006,05,29,02,19,0.00
2006,05,29,02,20,0.00
2006,05,29,02,21,0.00
2006,05,29,02,22,0.00
2006,05,29,02,23,0.00
2006,05,29,02,24,0.00
2006,05,29,02,25,0.00
2006,05,29,02,26,0.00
2006,05,29,02,27,0.00
2006,05,29,02,28,0.00
2006,05,29,02,29,0.00
2006,05,29,02,30,0.00
2006,05,29,02,31,0.00
2006,05,29,02,32,0.00
2006,05,29,02,33,0.00
2006,05,29,02,34,0.00
2006,05,29,02,35,0.00
2006,05,29,02,36,0.00
2006,05,29,02,37,0.00
2006,05,29,02,38,0.00
2006,05,29,02,39,0.00
2006,05,29,02,40,0.00
2006,05,29,02,41,0.00
2006,05,29,02,42,0.00
2006,05,29,02,43,0.00
2006,05,29,02,44,0.00
2006,05,29,02,45,0.00
2006,05,29,02,46,0.00
2006,05,29,02,47,0.00
2006,05,29,02,48,0.00
2006,05,29,02,49,0.00
2006,05,29,02,50,0.00
2006,05,29,02,51,0.00
2006,05,29,02,52,0.00
2006,05,29,02,53,0.00
2006,05,29,02,54,0.00
2006,05,29,02,55,0.00
2006,05,29,02,56,0.00
2006,05,29,02,57,0.00
2006,05,29,02,58,0.00
2006,05,29,02,59,0.00
2006,05,29,03,00,0.00
2006,05,29,03,01,0.00
2006,05,29,03,02,0.00
2006,05,29,03,03,0.00
2006,05,29,03,04,0.00
2006,05,29,03,05,0.00
2006,05,29,03,06,0.00
2006,05,29,03,07,0.00
2006,05,29,03,08,0.00
2006,05,29,03,09,0.00
2006,05,29,03,10,0.00
2006,05,29,03,11,0.00
2006,05,29,03,12,0.00
2006,05,29,03,13,0.00
2006,05,29,03,14,0.00
2006,05,29,03,15,0.00
2006,05,29,03,16,0.00
2006,05,29,03,17,0.00
2006,05,29,03,18,0.00
2006,05,29,03,19,0.00
2006,05,29,03,20,0.00
2006,05,29,03,21,0.00
2006,05,29,03,22,0.00
2006,05,29,03,23,0.00
2006,05,29,03,24,0.00
2006,05,29,03,25,0.00
2006,05,29,03,26,0.00
2006,05,29,03,27,0.00
2006,05,29,03,28,0.00
2006,05,29,03,29,0.00
2006,05,29,03,30,0.00
2006,05,29,03,31,0.00
2006,05,29,03,32,0.00
2006,05,29,03,33,0.00
2006,05,29,03,34,0.00
2006,05,29,03,35,0.00
2006,05,29,03,36,0.00
2006,05,29,03,37,0.00
2006,05,29,03,38,0.00
2006,05,29,03,39,0.00
2006,05,29,03,40,0.00
2006,05,29,03,41,0.00
2006,05,29,03,42,0.00
2006,05,29,03,43,0.00
2006,05,29,03,44,0.00
2006,05,29,03,45,0.00
2006,05,29,03,46,0.00
2006,05,29,03,47,0.00
2006,05,29,03,48,0.00
2006,05,29,03,49,0.00
2006,05,29,03,50,0.00
2006,05,29,03,51,0.00
2006,05,29,03,52,0.00
2006,05,29,03,53,0.00
2006,05,29,03,54,0.00
2006,05,29,03,55,0.00
2006,05,29,03,56,0.00
2006,05,29,03,57,0.00
2006,05,29,03,58,0.00
2006,05,29,03,59,0.00
2006,05,29,04,00,0.00
2006,05,29,04,01,0.00
2006,05,29,04,02,0.00
2006,05,29,04,03,0.00
2006,05,29,04,04,0.00
2006,05,29,04,05,0.00
2006,05,29,04,06,0.00
2006,05,29,04,07,0.00
2006,05,29,04,08,0.00
2006,05,29,04,09,0.00
2006,05,29,04,10,0.00
2006,05,29,04,11,0.00
2006,05,29,04,12,0.00
2006,05,29,04,13,0.00
2006,05,29,04,14,0.00
2006,05,29,04,15,0.00
2006,05,29,04,16,0.00
2006,05,29,04,17,0.00
2006,05,29,04,18,0.00
2006,05,29,04,19,0.00
2006,05,29,04,20,0.00
2006,05,29,04,21,0.00
2006,05,29,04,22,0.00
2006,05,29,04,23,0.00
2006,05,29,04,24,0.00
2006,05,29,04,25,0.00
2006,05,29,04,26,0.00
2006,05,29,04,27,0.00
2006,05,29,04,28,0.00
2006,05,29,04,29,0.00
2006,05,29,04,30,0.00
2006,05,29,04,31,0.00
2006,05,29,04,32,0.00
2006,05,29,04,33,0.00
2006,05,29,04,34,0.00
2006,05,29,04,35,0.00
2006,05,29,04,36,0.00
2006,05,29,04,37,0.00
2006,05,29,04,38,0.00
2006,05,29,04,39,0.00
2006,05,29,04,40,0.00
2006,05,29,04,41,0.00
2006,05,29,04,42,0.00
2006,05,29,04,43,0.00
2006,05,29,04,44,0.00
2006,05,29,04,45,0.00
2006,05,29,04,46,0.00
2006,05,29,04,47,0.00
2006,05,29,04,48,0.00
2006,05,29,04,49,0.00
2006,05,29,04,50,0.00
2006,05,29,04,51,0.00
2006,05,29,04,52,0.00
2006,05,29,04,53,0.00
2006,05,29,04,54,0.00
2006,05,29,04,55,0.00
2006,05,29,04,56,0.00
2006,05,29,04,57,0.00
2006,05,29,04,58,0.00
2006,05,29,04,59,0.00
2006,05,29,05,00,0.00
2006,05,29,05,01,0.00
2006,05,29,05,02,0.00
2006,05,29,05,03,0.00
2006,05,29,05,04,0.00
2006,05,29,05,05,0.00
2006,05,29,05,06,0.00
2006,05,29,05,07,0.00
2006,05,29,05,08,0.00
2006,05,29,05,09,0.00
2006,05,29,05,10,0.00
2006,05,29,05,11,0.00
2006,05,29,05,12,0.00
2006,05,29,05,13,0.00
2006,05,29,05,14,0.00
2006,05,29,05,15,0.00
2006,05,29,05,16,0.00
2006,05,29,05,17,0.00
2006,05,29,05,18,0.00
2006,05,29,05,19,0.00
2006,05,29,05,20,0.00
2006,05,29,05,21,0.00
2006,05,29,05,22,0.00
2006,05,29,05,23,0.00
2006,05,29,05,24,0.50
2006,05,29,05,25,5.00
2006,05,29,05,26,5.00
2006,05,29,05,27,5.00
2006,05,29,05,28,5.00
2006,05,29,05,29,5.00
2006,05,29,05,30,7.00
2006,05,29,05,31,7.00
2006,05,29,05,32,7.00
2006,05,29,05,33,7.00
2006,05,29,05,34,7.00
2006,05,29,05,35,7.00
2006,05,29,05,36,7.00
2006,05,29,05,37,7.60
2006,05,29,05,38,9.00
2006,05,29,05,39,10.20
2006,05,29,05,40,11.00
2006,05,29,05,41,10.90
2006,05,29,05,42,9.00
2006,05,29,05,43,9.00
2006,05,29,05,44,9.00
2006,05,29,05,45,9.00
2006,05,29,05,46,9.00
2006,05,29,05,47,9.00
2006,05,29,05,48,9.00
2006,05,29,05,49,9.70
2006,05,29,05,50,11.00
2006,05,29,05,51,11.60
2006,05,29,05,52,12.00
2006,05,29,05,53,13.80
2006,05,29,05,54,14.00
2006,05,29,05,55,14.00
2006,05,29,05,56,14.00
2006,05,29,05,57,14.00
2006,05,29,05,58,15.60
2006,05,29,05,59,16.00
2006,05,29,06,00,16.40
2006,05,29,06,01,18.00
2006,05,29,06,02,18.00
2006,05,29,06,03,18.70
2006,05,29,06,04,20.60
2006,05,29,06,05,21.20
2006,05,29,06,06,23.00
2006,05,29,06,07,23.00
2006,05,29,06,08,24.10
2006,05,29,06,09,25.00
2006,05,29,06,10,25.00
2006,05,29,06,11,25.00
2006,05,29,06,12,25.00
2006,05,29,06,13,24.20
2006,05,29,06,14,23.00
2006,05,29,06,15,23.00
2006,05,29,06,16,23.00
2006,05,29,06,17,23.30
2006,05,29,06,18,25.00
2006,05,29,06,19,25.00
2006,05,29,06,20,25.00
2006,05,29,06,21,25.70
2006,05,29,06,22,26.00
2006,05,29,06,23,26.00
2006,05,29,06,24,26.00
2006,05,29,06,25,26.00
2006,05,29,06,26,25.40
2006,05,29,06,27,25.00
2006,05,29,06,28,25.00
2006,05,29,06,29,25.00
2006,05,29,06,30,25.00
2006,05,29,06,31,25.00
2006,05,29,06,32,25.00
2006,05,29,06,33,25.00
2006,05,29,06,34,25.00
2006,05,29,06,35,25.00
2006,05,29,06,36,25.40
2006,05,29,06,37,26.00
2006,05,29,06,38,27.40
2006,05,29,06,39,28.00
2006,05,29,06,40,29.90
2006,05,29,06,41,30.00
2006,05,29,06,42,30.70
2006,05,29,06,43,32.00
2006,05,29,06,44,32.00
2006,05,29,06,45,32.00
2006,05,29,06,46,32.00
2006,05,29,06,47,32.00
2006,05,29,06,48,32.00
2006,05,29,06,49,32.00
2006,05,29,06,50,32.00
2006,05,29,06,51,32.00
2006,05,29,06,52,31.80
2006,05,29,06,53,30.00
2006,05,29,06,54,30.00
2006,05,29,06,55,30.00
2006,05,29,06,56,30.00
2006,05,29,06,57,30.00
2006,05,29,06,58,30.00
2006,05,29,06,59,30.00
2006,05,29,07,00,30.00
2006,05,29,07,01,30.00
2006,05,29,07,02,28.50
2006,05,29,07,03,28.00
2006,05,29,07,04,28.00
2006,05,29,07,05,28.00
2006,05,29,07,06,28.00
2006,05,29,07,07,28.00
2006,05,29,07,08,29.50
2006,05,29,07,09,30.00
2006,05,29,07,10,30.00
2006,05,29,07,11,30.00
2006,05,29,07,12,30.90
2006,05,29,07,13,32.00
2006,05,29,07,14,32.00
2006,05,29,07,15,32.90
2006,05,29,07,16,33.40
2006,05,29,07,17,35.00
2006,05,29,07,18,35.90
2006,05,29,07,19,37.00
2006,05,29,07,20,39.40
2006,05,29,07,21,42.00
2006,05,29,07,22,44.80
2006,05,29,07,23,47.70
2006,05,29,07,24,49.00
2006,05,29,07,25,50.30
2006,05,29,07,26,51.00
2006,05,29,07,27,52.90
2006,05,29,07,28,53.20
2006,05,29,07,29,54.00
2006,05,29,07,30,54.00
2006,05,29,07,31,54.00
2006,05,29,07,32,54.00
2006,05,29,07,33,54.00
2006,05,29,07,34,54.00
2006,05,29,07,35,55.60
2006,05,29,07,36,60.20
2006,05,29,07,37,64.10
2006,05,29,07,38,68.40
2006,05,29,07,39,74.30
2006,05,29,07,40,76.80
2006,05,29,07,41,79.90
2006,05,29,07,42,82.20
2006,05,29,07,43,83.00
2006,05,29,07,44,83.90
2006,05,29,07,45,84.30
2006,05,29,07,46,86.60
2006,05,29,07,47,89.30
2006,05,29,07,48,93.40
2006,05,29,07,49,96.50
2006,05,29,07,50,99.70
2006,05,29,07,51,102.00
2006,05,29,07,52,102.00
2006,05,29,07,53,102.00
2006,05,29,07,54,103.30
2006,05,29,07,55,104.00
2006,05,29,07,56,104.00
2006,05,29,07,57,103.60
2006,05,29,07,58,100.60
2006,05,29,07,59,97.50
2006,05,29,08,00,94.40
2006,05,29,08,01,91.40
2006,05,29,08,02,87.90
2006,05,29,08,03,86.00
2006,05,29,08,04,85.30
2006,05,29,08,05,84.00
2006,05,29,08,06,83.30
2006,05,29,08,07,83.00
2006,05,29,08,08,83.00
2006,05,29,08,09,83.20
2006,05,29,08,10,84.00
2006,05,29,08,11,85.10
2006,05,29,08,12,86.00
2006,05,29,08,13,87.60
2006,05,29,08,14,88.30
2006,05,29,08,15,90.00
2006,05,29,08,16,89.20
2006,05,29,08,17,88.00
2006,05,29,08,18,88.00
2006,05,29,08,19,88.00
2006,05,29,08,20,84.00
2006,05,29,08,21,83.80
2006,05,29,08,22,83.40
2006,05,29,08,23,84.00
2006,05,29,08,24,84.00
2006,05,29,08,25,85.80
2006,05,29,08,26,86.30
2006,05,29,08,27,88.00
2006,05,29,08,28,88.00
2006,05,29,08,29,89.30
2006,05,29,08,30,90.00
2006,05,29,08,31,91.10
2006,05,29,08,32,95.60
2006,05,29,08,33,99.30
2006,05,29,08,34,102.00
2006,05,29,08,35,106.60
2006,05,29,08,36,112.20
2006,05,29,08,37,117.70
2006,05,29,08,38,122.20
2006,05,29,08,39,128.10
2006,05,29,08,40,132.00
2006,05,29,08,41,135.90
2006,05,29,08,42,142.60
2006,05,29,08,43,148.30
2006,05,29,08,44,153.80
2006,05,29,08,45,157.50
2006,05,29,08,46,161.60
2006,05,29,08,47,164.30
2006,05,29,08,48,166.60
2006,05,29,08,49,168.80
2006,05,29,08,50,167.00
2006,05,29,08,51,167.00
2006,05,29,08,52,167.00
2006,05,29,08,53,168.40
2006,05,29,08,54,169.00
2006,05,29,08,55,171.00
2006,05,29,08,56,171.00
2006,05,29,08,57,171.00
2006,05,29,08,58,171.00
2006,05,29,08,59,171.00
2006,05,29,09,00,169.20
2006,05,29,09,01,169.30
2006,05,29,09,02,171.00
2006,05,29,09,03,171.40
2006,05,29,09,04,173.20
2006,05,29,09,05,176.80
2006,05,29,09,06,178.10
2006,05,29,09,07,181.60
2006,05,29,09,08,185.30
2006,05,29,09,09,186.80
2006,05,29,09,10,188.00
2006,05,29,09,11,189.50
2006,05,29,09,12,191.90
2006,05,29,09,13,193.60
2006,05,29,09,14,197.00
2006,05,29,09,15,201.10
2006,05,29,09,16,209.20
2006,05,29,09,17,216.50
2006,05,29,09,18,224.60
2006,05,29,09,19,230.40
2006,05,29,09,20,233.40
2006,05,29,09,21,236.50
2006,05,29,09,22,238.30
2006,05,29,09,23,240.60
2006,05,29,09,24,244.20
2006,05,29,09,25,248.60
2006,05,29,09,26,252.40
2006,05,29,09,27,256.10
2006,05,29,09,28,257.70
2006,05,29,09,29,258.00
2006,05,29,09,30,256.90
2006,05,29,09,31,255.00
2006,05,29,09,32,255.00
2006,05,29,09,33,255.00
2006,05,29,09,34,255.00
2006,05,29,09,35,256.70
2006,05,29,09,36,257.30
2006,05,29,09,37,260.00
2006,05,29,09,38,260.80
2006,05,29,09,39,262.00
2006,05,29,09,40,262.00
2006,05,29,09,41,258.60
2006,05,29,09,42,254.40
2006,05,29,09,43,250.70
2006,05,29,09,44,248.20
2006,05,29,09,45,244.80
2006,05,29,09,46,243.30
2006,05,29,09,47,241.30
2006,05,29,09,48,241.00
2006,05,29,09,49,241.00
2006,05,29,09,50,241.00
2006,05,29,09,51,241.00
2006,05,29,09,52,242.50
2006,05,29,09,53,244.00
2006,05,29,09,54,247.00
2006,05,29,09,55,251.70
2006,05,29,09,56,254.90
2006,05,29,09,57,258.80
2006,05,29,09,58,263.00
2006,05,29,09,59,270.70
2006,05,29,10,00,272.00
2006,05,29,10,01,272.00
2006,05,29,10,02,268.30
2006,05,29,10,03,265.00
2006,05,29,10,04,264.20
2006,05,29,10,05,262.40
2006,05,29,10,06,264.60
2006,05,29,10,07,267.80
2006,05,29,10,08,270.10
2006,05,29,10,09,274.20
2006,05,29,10,10,278.40
2006,05,29,10,11,287.30
2006,05,29,10,12,295.70
2006,05,29,10,13,303.10
2006,05,29,10,14,308.80
2006,05,29,10,15,313.70
2006,05,29,10,16,317.40
2006,05,29,10,17,320.20
2006,05,29,10,18,322.30
2006,05,29,10,19,323.00
2006,05,29,10,20,326.90
2006,05,29,10,21,332.90
2006,05,29,10,22,338.20
2006,05,29,10,23,343.00
2006,05,29,10,24,343.80
2006,05,29,10,25,346.00
2006,05,29,10,26,345.40
2006,05,29,10,27,345.00
2006,05,29,10,28,345.90
2006,05,29,10,29,347.20
2006,05,29,10,30,353.00
2006,05,29,10,31,358.30
2006,05,29,10,32,365.00
2006,05,29,10,33,367.00
2006,05,29,10,34,367.50
2006,05,29,10,35,375.00
2006,05,29,10,36,370.40
2006,05,29,10,37,366.80
2006,05,29,10,38,364.00
2006,05,29,10,39,364.00
2006,05,29,10,40,364.10
2006,05,29,10,41,366.00
2006,05,29,10,42,366.00
2006,05,29,10,43,365.00
2006,05,29,10,44,364.00
2006,05,29,10,45,364.00
2006,05,29,10,46,359.70
2006,05,29,10,47,354.40
2006,05,29,10,48,349.50
2006,05,29,10,49,341.70
2006,05,29,10,50,336.90
2006,05,29,10,51,332.80
2006,05,29,10,52,329.90
2006,05,29,10,53,329.00
2006,05,29,10,54,328.20
2006,05,29,10,55,324.90
2006,05,29,10,56,322.30
2006,05,29,10,57,320.30
2006,05,29,10,58,318.00
2006,05,29,10,59,318.00
2006,05,29,11,00,318.00
2006,05,29,11,01,319.00
2006,05,29,11,02,321.40
2006,05,29,11,03,322.00
2006,05,29,11,04,325.30
2006,05,29,11,05,327.00
2006,05,29,11,06,327.00
2006,05,29,11,07,327.00
2006,05,29,11,08,328.50
2006,05,29,11,09,329.90
2006,05,29,11,10,330.40
2006,05,29,11,11,332.00
2006,05,29,11,12,331.10
2006,05,29,11,13,330.00
2006,05,29,11,14,329.20
2006,05,29,11,15,330.00
2006,05,29,11,16,332.40
2006,05,29,11,17,334.00
2006,05,29,11,18,337.50
2006,05,29,11,19,343.40
2006,05,29,11,20,347.40
2006,05,29,11,21,349.80
2006,05,29,11,22,350.00
2006,05,29,11,23,350.00
2006,05,29,11,24,350.00
2006,05,29,11,25,350.00
2006,05,29,11,26,348.40
2006,05,29,11,27,348.10
2006,05,29,11,28,350.00
2006,05,29,11,29,350.70
2006,05,29,11,30,353.60
2006,05,29,11,31,357.70
2006,05,29,11,32,359.80
2006,05,29,11,33,364.10
2006,05,29,11,34,368.00
2006,05,29,11,35,373.00
2006,05,29,11,36,378.10
2006,05,29,11,37,383.50
2006,05,29,11,38,389.20
2006,05,29,11,39,396.30
2006,05,29,11,40,399.60
2006,05,29,11,41,401.00
2006,05,29,11,42,403.80
2006,05,29,11,43,408.70
2006,05,29,11,44,416.00
2006,05,29,11,45,424.70
2006,05,29,11,46,431.00
2006,05,29,11,47,434.40
2006,05,29,11,48,441.20
2006,05,29,11,49,443.00
2006,05,29,11,50,443.00
2006,05,29,11,51,450.30
2006,05,29,11,52,452.00
2006,05,29,11,53,452.00
2006,05,29,11,54,452.00
2006,05,29,11,55,453.50
2006,05,29,11,56,454.00
2006,05,29,11,57,454.80
2006,05,29,11,58,453.40
2006,05,29,11,59,449.00
2006,05,29,12,00,445.40
2006,05,29,12,01,443.40
2006,05,29,12,02,445.00
2006,05,29,12,03,449.50
2006,05,29,12,04,457.50
2006,05,29,12,05,465.50
2006,05,29,12,06,474.90
2006,05,29,12,07,483.60
2006,05,29,12,08,499.60
2006,05,29,12,09,510.00
2006,05,29,12,10,501.20
2006,05,29,12,11,493.30
2006,05,29,12,12,490.00
2006,05,29,12,13,484.40
2006,05,29,12,14,482.00
2006,05,29,12,15,482.20
2006,05,29,12,16,484.50
2006,05,29,12,17,490.90
2006,05,29,12,18,500.20
2006,05,29,12,19,511.00
2006,05,29,12,20,529.40
2006,05,29,12,21,548.50
2006,05,29,12,22,568.40
2006,05,29,12,23,583.40
2006,05,29,12,24,607.80
2006,05,29,12,25,610.80
2006,05,29,12,26,611.40
2006,05,29,12,27,621.30
2006,05,29,12,28,618.30
2006,05,29,12,29,566.90
2006,05,29,12,30,554.20
2006,05,29,12,31,542.30
2006,05,29,12,32,531.70
2006,05,29,12,33,522.50
2006,05,29,12,34,516.00
2006,05,29,12,35,511.10
2006,05,29,12,36,507.10
2006,05,29,12,37,503.30
2006,05,29,12,38,500.70
2006,05,29,12,39,499.60
2006,05,29,12,40,502.00
2006,05,29,12,41,503.60
2006,05,29,12,42,505.50
2006,05,29,12,43,509.70
2006,05,29,12,44,513.00
2006,05,29,12,45,512.70
2006,05,29,12,46,512.00
2006,05,29,12,47,512.00
2006,05,29,12,48,512.80
2006,05,29,12,49,515.40
2006,05,29,12,50,521.40
2006,05,29,12,51,527.80
2006,05,29,12,52,530.10
2006,05,29,12,53,533.10
2006,05,29,12,54,535.60
2006,05,29,12,55,539.80
2006,05,29,12,56,536.60
2006,05,29,12,57,525.20
2006,05,29,12,58,520.50
2006,05,29,12,59,517.60
2006,05,29,13,00,517.00
2006,05,29,13,01,519.50
2006,05,29,13,02,523.10
2006,05,29,13,03,525.20
2006,05,29,13,04,525.70
2006,05,29,13,05,531.90
2006,05,29,13,06,540.30
2006,05,29,13,07,554.40
2006,05,29,13,08,572.20
2006,05,29,13,09,579.00
2006,05,29,13,10,579.00
2006,05,29,13,11,591.40
2006,05,29,13,12,613.50
2006,05,29,13,13,611.40
2006,05,29,13,14,608.00
2006,05,29,13,15,606.70
2006,05,29,13,16,615.10
2006,05,29,13,17,628.50
2006,05,29,13,18,654.70
2006,05,29,13,19,661.30
2006,05,29,13,20,638.50
2006,05,29,13,21,652.00
2006,05,29,13,22,678.70
2006,05,29,13,23,653.80
2006,05,29,13,24,619.40
2006,05,29,13,25,615.40
2006,05,29,13,26,617.70
2006,05,29,13,27,614.50
2006,05,29,13,28,610.00
2006,05,29,13,29,595.60
2006,05,29,13,30,581.10
2006,05,29,13,31,586.80
2006,05,29,13,32,603.80
2006,05,29,13,33,633.50
2006,05,29,13,34,695.70
2006,05,29,13,35,724.00
2006,05,29,13,36,788.20
2006,05,29,13,37,1366.00
2006,05,29,13,38,1366.00
2006,05,29,13,39,1366.00
2006,05,29,13,40,1366.00
2006,05,29,13,41,1366.00
2006,05,29,13,42,1270.80
2006,05,29,13,43,734.70
2006,05,29,13,44,731.70
2006,05,29,13,45,769.00
2006,05,29,13,46,809.00
2006,05,29,13,47,719.70
2006,05,29,13,48,632.60
2006,05,29,13,49,616.60
2006,05,29,13,50,609.10
2006,05,29,13,51,609.20
2006,05,29,13,52,612.10
2006,05,29,13,53,613.00
2006,05,29,13,54,608.80
2006,05,29,13,55,580.80
2006,05,29,13,56,569.60
2006,05,29,13,57,571.00
2006,05,29,13,58,571.50
2006,05,29,13,59,571.00
2006,05,29,14,00,571.00
2006,05,29,14,01,570.00
2006,05,29,14,02,568.00
2006,05,29,14,03,720.20
2006,05,29,14,04,809.00
2006,05,29,14,05,809.00
2006,05,29,14,06,775.80
2006,05,29,14,07,630.80
2006,05,29,14,08,614.50
2006,05,29,14,09,630.00
2006,05,29,14,10,643.10
2006,05,29,14,11,609.00
2006,05,29,14,12,602.20
2006,05,29,14,13,601.60
2006,05,29,14,14,613.00
2006,05,29,14,15,616.90
2006,05,29,14,16,604.60
2006,05,29,14,17,606.90
2006,05,29,14,18,642.20
2006,05,29,14,19,691.00
2006,05,29,14,20,691.00
2006,05,29,14,21,658.80
2006,05,29,14,22,645.00
2006,05,29,14,23,645.00
2006,05,29,14,24,645.00
2006,05,29,14,25,645.00
2006,05,29,14,26,645.00
2006,05,29,14,27,997.20
2006,05,29,14,28,1123.00
2006,05,29,14,29,717.30
2006,05,29,14,30,772.00
2006,05,29,14,31,772.00
2006,05,29,14,32,772.00
2006,05,29,14,33,772.00
2006,05,29,14,34,1146.00
2006,05,29,14,35,1143.60
2006,05,29,14,36,955.30
2006,05,29,14,37,949.00
2006,05,29,14,38,949.00
2006,05,29,14,39,949.00
2006,05,29,14,40,716.30
2006,05,29,14,41,754.80
2006,05,29,14,42,681.30
2006,05,29,14,43,629.30
2006,05,29,14,44,642.00
2006,05,29,14,45,642.00
2006,05,29,14,46,653.70
2006,05,29,14,47,875.00
2006,05,29,14,48,904.00
2006,05,29,14,49,958.00
2006,05,29,14,50,769.50
2006,05,29,14,51,668.00
2006,05,29,14,52,668.00
2006,05,29,14,53,668.00
2006,05,29,14,54,668.00
2006,05,29,14,55,810.40
2006,05,29,14,56,967.00
2006,05,29,14,57,848.30
2006,05,29,14,58,826.00
2006,05,29,14,59,845.50
2006,05,29,15,00,911.20
2006,05,29,15,01,932.00
2006,05,29,15,02,932.00
2006,05,29,15,03,967.70
2006,05,29,15,04,938.60
2006,05,29,15,05,638.00
2006,05,29,15,06,638.00
2006,05,29,15,07,638.00
2006,05,29,15,08,638.00
2006,05,29,15,09,638.00
2006,05,29,15,10,638.00
2006,05,29,15,11,638.00
2006,05,29,15,12,641.80
2006,05,29,15,13,630.50
2006,05,29,15,14,549.50
2006,05,29,15,15,512.50
2006,05,29,15,16,510.00
2006,05,29,15,17,496.70
2006,05,29,15,18,464.20
2006,05,29,15,19,460.70
2006,05,29,15,20,495.20
2006,05,29,15,21,480.00
2006,05,29,15,22,493.80
2006,05,29,15,23,473.00
2006,05,29,15,24,473.00
2006,05,29,15,25,473.00
2006,05,29,15,26,570.50
2006,05,29,15,27,603.00
2006,05,29,15,28,603.00
2006,05,29,15,29,603.00
2006,05,29,15,30,613.50
2006,05,29,15,31,624.00
2006,05,29,15,32,624.00
2006,05,29,15,33,624.00
2006,05,29,15,34,616.30
2006,05,29,15,35,564.80
2006,05,29,15,36,545.00
2006,05,29,15,37,545.00
2006,05,29,15,38,604.20
2006,05,29,15,39,553.60
2006,05,29,15,40,550.00
2006,05,29,15,41,550.00
2006,05,29,15,42,627.50
2006,05,29,15,43,756.10
2006,05,29,15,44,867.30
2006,05,29,15,45,972.00
2006,05,29,15,46,851.40
2006,05,29,15,47,551.90
2006,05,29,15,48,534.20
2006,05,29,15,49,511.30
2006,05,29,15,50,467.00
2006,05,29,15,51,464.00
2006,05,29,15,52,484.70
2006,05,29,15,53,533.00
2006,05,29,15,54,533.00
2006,05,29,15,55,502.90
2006,05,29,15,56,496.00
2006,05,29,15,57,509.80
2006,05,29,15,58,578.00
2006,05,29,15,59,504.60
2006,05,29,16,00,425.20
2006,05,29,16,01,432.00
2006,05,29,16,02,512.50
2006,05,29,16,03,522.00
2006,05,29,16,04,636.90
2006,05,29,16,05,876.50
2006,05,29,16,06,859.80
2006,05,29,16,07,854.40
2006,05,29,16,08,854.00
2006,05,29,16,09,854.00
2006,05,29,16,10,809.20
2006,05,29,16,11,712.00
2006,05,29,16,12,761.40
2006,05,29,16,13,779.30
2006,05,29,16,14,768.60
2006,05,29,16,15,763.50
2006,05,29,16,16,759.00
2006,05,29,16,17,759.00
2006,05,29,16,18,760.40
2006,05,29,16,19,761.00
2006,05,29,16,20,753.10
2006,05,29,16,21,686.00
2006,05,29,16,22,686.00
2006,05,29,16,23,686.00
2006,05,29,16,24,717.50
2006,05,29,16,25,731.00
2006,05,29,16,26,721.80
2006,05,29,16,27,714.80
2006,05,29,16,28,714.00
2006,05,29,16,29,714.00
2006,05,29,16,30,709.10
2006,05,29,16,31,707.00
2006,05,29,16,32,706.70
2006,05,29,16,33,704.50
2006,05,29,16,34,701.70
2006,05,29,16,35,700.00
2006,05,29,16,36,697.10
2006,05,29,16,37,696.00
2006,05,29,16,38,697.10
2006,05,29,16,39,704.20
2006,05,29,16,40,707.00
2006,05,29,16,41,707.00
2006,05,29,16,42,707.00
2006,05,29,16,43,511.70
2006,05,29,16,44,490.00
2006,05,29,16,45,543.20
2006,05,29,16,46,642.00
2006,05,29,16,47,642.00
2006,05,29,16,48,642.00
2006,05,29,16,49,642.00
2006,05,29,16,50,642.00
2006,05,29,16,51,642.00
2006,05,29,16,52,661.00
2006,05,29,16,53,669.60
2006,05,29,16,54,669.50
2006,05,29,16,55,680.90
2006,05,29,16,56,682.00
2006,05,29,16,57,682.00
2006,05,29,16,58,682.00
2006,05,29,16,59,682.00
2006,05,29,17,00,682.00
2006,05,29,17,01,684.40
2006,05,29,17,02,705.00
2006,05,29,17,03,705.00
2006,05,29,17,04,574.70
2006,05,29,17,05,480.00
2006,05,29,17,06,480.00
2006,05,29,17,07,446.20
2006,05,29,17,08,255.00
2006,05,29,17,09,255.00
2006,05,29,17,10,235.30
2006,05,29,17,11,228.70